STARLINK-35471

Last updated on Mon Oct 20 2025 00:02:07 GMT+0000 (Coordinated Universal Time)

1 65864U 25223L 25292.25002315 -.01910650 00000+0 -21838-1 0 9997 2 65864 53.1599 234.9737 0001251 86.5638 24.1135 15.64692263 3736
UTC large
Height (km)
Speed (km/s)
/
Latitude / Longitude
Inclination (degrees)
Orbital Period (minutes)
Azimuth
Elevation
Range (km)
Doppler Factor

Next 0 passes for location: London (51.5072 / 0.1276)

Sorry there are no passes over London.